Location: Goettingen
(51.5300°N, 9.9433°E)
Time: 19:54:09
(UTC+01:00)

ISS - Pass Details

Date: 17 December 2017
Orbit: 402 x 407 km, 51.6° (Epoch: 11 December)

Event Time Altitude Azimuth Distance (km) Brightness Sun altitude
Rises 17:45:27 0° 277° (W) 2,330 1.2 -13.5°
Reaches altitude 10° 17:49:02 10° 236° (SW) 1,463 0.3 -14.0°
Maximum altitude 17:49:45 11° 223° (SW) 1,428 0.0 -14.1°
Drops below altitude 10° 17:50:29 10° 210° (SSW) 1,460 -0.3 -14.2°
Sets 17:54:02 0° 169° (S) 2,312 0.1 -14.8°
